Flag for United Kingdom Weather past 2 weeks in Poole, England, United Kingdom

Now
61 °F

Passing clouds.


Feels Like: 61 °F
Forecast: 50 / 78 °F
Wind: 8 mph from Northwest

Location: Bournemouth Airport

Current Time: Jul 2, 2015 at 2:06:27 AM

Latest Report: Jul 2, 2015 at 12:50 AM


Visibility: N/A

Pressure: 29.98 "Hg

Humidity: 88%

Dew point: 57 °F

Location of PooleLocation

Historic Weather in Poole — Graph

°F

Poole temperature yesterday

Maximum temperature yesterday: 84 °F (at 12:50 PM)
Minimum temperature yesterday: 63 °F (at 10:20 PM)
Average temperature yesterday: 72 °F

Past Weeks' High & Low Weather Summary

 TemperatureHumidityPressure
High84 °F (Jul 1, 12:50 PM)100% (Jun 24, 6:50 AM)30.33 "Hg (Jun 24, 6:50 AM)
Low46 °F (Jun 19, 5:20 AM)36% (Jun 19, 3:20 PM)29.80 "Hg (Jul 1, 12:50 PM)
Average63 °F71%30.09 "Hg
* Reported Jun 17 12:50 AM — Jul 2 12:50 AM, Poole, Weather by CustomWeather, © 2015

Note: Actual official high and low records may vary slightly from our data, if they occured in-between our weather recording intervals... More about our weather records

Advertising

Poole weather history for previous 24 hours

 ConditionsComfort  
Time TempWeatherWind HumidityBarometerVisibility
12:50 AM
Thu, Jul 2
61 °FPassing clouds.8 mph88%29.98 "HgN/A
12:20 AM61 °FPassing clouds.7 mph88%29.98 "HgN/A
11:20 PM
Wed, Jul 1
63 °FPassing clouds.9 mph83%29.95 "HgN/A
10:50 PM63 °FPassing clouds.13 mph83%29.95 "HgN/A
10:20 PM63 °FPassing clouds.13 mph83%29.95 "HgN/A
9:50 PM64 °FSunny.10 mph83%29.92 "Hg10 mi
9:20 PM64 °FSunny.6 mph83%29.92 "Hg10 mi
8:50 PM64 °FScattered clouds.10 mph83%29.92 "Hg6 mi
8:20 PM66 °FScattered clouds.8 mph78%29.89 "Hg5 mi
7:20 PM75 °FSunny.9 mph61%29.86 "Hg10 mi
6:50 PM77 °FSunny.2 mph61%29.86 "Hg10 mi
6:20 PM79 °FSunny.6 mph58%29.83 "Hg10 mi
5:50 PM79 °FSunny.6 mph58%29.83 "Hg10 mi
5:20 PM75 °FSunny.5 mph65%29.83 "Hg10 mi
4:50 PM77 °FSunny.7 mph61%29.86 "Hg10 mi
4:20 PM75 °FSunny.8 mph61%29.86 "Hg10 mi
3:50 PM77 °FSunny.7 mph57%29.86 "Hg10 mi
3:20 PM73 °FSunny.8 mph61%29.83 "Hg10 mi
2:50 PM75 °FSunny.9 mph61%29.83 "Hg10 mi
2:20 PM73 °FSunny.8 mph65%29.83 "Hg10 mi
1:50 PM72 °FSunny.12 mph65%29.83 "Hg10 mi
1:20 PM79 °FPassing clouds.16 mph54%29.86 "HgN/A
12:50 PM84 °FPassing clouds.3 mph48%29.80 "HgN/A
12:20 PM79 °FPassing clouds.8 mph58%29.83 "HgN/A
11:50 AM79 °FPassing clouds.6 mph54%29.83 "HgN/A
11:20 AM75 °FPassing clouds.3 mph61%29.86 "HgN/A
10:50 AM73 °FPassing clouds.6 mph61%29.86 "HgN/A
10:20 AM70 °FPassing clouds.8 mph69%29.86 "HgN/A
9:50 AM70 °FSprinkles. Clear.12 mph64%29.86 "HgN/A
9:20 AM72 °FSunny.12 mph61%29.86 "Hg10 mi
8:50 AM75 °FSunny.14 mph50%29.83 "Hg10 mi
8:20 AM75 °FSunny.14 mph50%29.83 "Hg10 mi
7:50 AM75 °FPassing clouds.14 mph50%29.83 "HgN/A
7:20 AM75 °FSunny.15 mph50%29.83 "Hg10 mi
6:50 AM73 °FPassing clouds.6 mph57%29.83 "HgN/A
6:20 AM70 °FSunny.5 mph64%29.83 "Hg10 mi
5:50 AM68 °FClear.7 mph64%29.83 "Hg10 mi
5:20 AM66 °FClear.7 mph68%29.83 "Hg10 mi
4:50 AM66 °FClear.6 mph68%29.83 "Hg10 mi
2:20 AM72 °FClear.6 mph57%29.86 "Hg10 mi
Weather by CustomWeather, © 2015

See weather overviewHow to use our weather pages